www.pogodaiklimat.ru

Погода и климат >> Архив погоды >> Норвегия >> Fagernes


ПОГОДА в Fagernes

  • Прогноз погоды в Fagernes
  • Монитор погоды в Fagernes
  • Климат города

АРХИВ ПОГОДЫ в Fagernes

Время (UTC), дата Ветер
(напр.,м/с)
 
Видим.   Явления Облачность Т
(С)
Тd
(С)
f
(%)
Тe
(С)
Тes
(С)
Комфортность P
(гПа)
Po
(гПа)
Тmin
(С)
Tmax
(С)
R
(мм)
R24
(мм)
S
(см)
19 16.06 З 2-4
{5}
н/о н/о +15.4 +6.4 55 +15 +15 1010.5 968.0
20 16.06 ЮЗ 4-5
{5}
н/о н/о +14.3 +7.1 62 +13 +13 1011.4 968.7
21 16.06 штиль 0
{4}
н/о н/о +12.9 +8.2 73 +13 +13 1012.5 969.6
22 16.06 З 1-2
{2}
н/о н/о +12.8 +7.3 69 +13 +13 1013.1 970.1
23 16.06 штиль 0-1
{2}
н/о н/о +12.4 +7.5 72 +12 +12 1013.8 970.8
00 17.06 штиль 0
{5}
н/о н/о +11.7 +7.4 75 +11 +11 1014.1 970.9
01 17.06 З 1-2
{2}
н/о н/о +12.2 +4.7 60 +12 +12 1014.7 971.5
02 17.06 З 1-2
{2}
н/о н/о +10.2 +5.8 74 +10 +10 1015.3 971.9
03 17.06 штиль 0
{2}
н/о н/о +8.9 +5.3 78 +8 +8 1016.0 972.4
04 17.06 штиль 0 н/о н/о +8.8 +6.1 83 +8 +8 1016.5 972.7
05 17.06 штиль 0 н/о н/о +11.9 +6.4 69 +12 +12 1016.1 972.9
06 17.06 штиль 0
{2}
н/о н/о +12.0 +6.3 68 +12 +12 1015.8 972.6 +8.3 +16.0
07 17.06 штиль 0
{1}
н/о н/о +13.5 +6.4 62 +13 +13 1016.0 973.0
08 17.06 штиль 0 н/о н/о +14.8 +5.3 53 +15 +15 1015.5 972.7
09 17.06 штиль 0
{1}
н/о н/о +17.0 +4.7 44 +17 +17 1014.9 972.5
10 17.06 З 3-3
{3}
н/о н/о +17.1 +7.5 53 +17 +17 1015.0 972.5
11 17.06 ЮЗ 2-3
{3}
н/о н/о +17.3 +5.0 44 +18 +18 1014.3 971.9
12 17.06 ЮЗ 2-3
{4}
н/о н/о +19.6 +6.7 43 +21 +21 комфорт 1013.3 971.3
13 17.06 ЮЗ 2-4
{4}
н/о н/о +19.7 +8.1 47 +21 +21 комфорт 1013.0 971.0
14 17.06 В 1-2
{4}
н/о н/о +19.8 +6.5 42 +22 +22 комфорт 1013.2 971.2
15 17.06 штиль 0-1
{4}
н/о н/о +19.3 +7.4 46 +20 +20 1013.6 971.5
16 17.06 штиль 0-1
{2}
н/о н/о +17.2 +9.4 60 +17 +17 1014.6 972.2
17 17.06 штиль 0-1
{2}
н/о н/о +17.4 +8.8 57 +17 +17 1014.1 971.7
18 17.06 штиль 0
{4}
н/о н/о +16.8 +9.0 60 +17 +17 1014.1 971.7 +12.0 +21.0
19 17.06 штиль 0-2
{2}
н/о н/о +16.7 +8.2 57 +17 +17 1014.6 972.1
20 17.06 штиль 0
{1}
н/о н/о +15.2 +8.5 64 +15 +15 1014.5 971.8
21 17.06 штиль 0
{1}
55 км 4/4 1500 м
[Cu hum Ac As]
+13.9 +8.1 68 +14 +14 1014.6 971.7
22 17.06 штиль 0
{1}
н/о н/о +12.4 +8.7 78 +12 +12 1014.9 971.8
23 17.06 штиль 0 н/о н/о +11.7 +9.1 84 +11 +11 1015.0 971.8
00 18.06 штиль 0
{2}
55 км 4/0
[As op]
+12.4 +8.7 78 +12 +12 1014.9 971.8
01 18.06 штиль 0 н/о н/о +12.2 +9.2 82 +12 +12 1014.5 971.4
02 18.06 штиль 0 н/о н/о +12.3 +9.5 83 +12 +12 1014.2 971.1
03 18.06 штиль 0
{1}
н/о н/о +12.0 +9.6 85 +11 +11 1014.0 970.9
04 18.06 штиль 0
{1}
н/о н/о +12.5 +10.1 85 +12 +12 1013.8 970.8
05 18.06 штиль 0
{2}
н/о н/о +13.9 +9.9 77 +14 +14 1013.7 970.9
06 18.06 штиль 0-1
{2}
н/о н/о +14.5 +9.7 73 +14 +14 1014.5 971.8 +11.5 +17.3
07 18.06 З 2-3
{3}
н/о н/о +17.0 +5.9 48 +17 +17 1013.8 971.4
08 18.06 штиль 0
{4}
н/о н/о +16.8 +5.5 47 +17 +17 1013.2 970.8
09 18.06 З 1-3
{5}
н/о н/о +17.8 +3.3 38 +19 +19 1013.4 971.2
10 18.06 ЮЗ 1-4
{6}
н/о н/о +18.1 +3.6 38 +19 +19 1013.5 971.3
11 18.06 ЮЗ 1-5
{5}
н/о н/о +18.5 +3.6 37 +20 +20 1013.6 971.4
12 18.06 ЮЗ 3-5
{6}
н/о н/о +17.8 -0.4 29 +18 +18 1013.7 971.5
13 18.06 З 4-7
{7}
н/о н/о +18.2 +1.3 32 +18 +18 1013.5 971.3
14 18.06 З 2-4
{6}
н/о н/о +18.1 +2.0 34 +19 +19 1013.6 971.4
15 18.06 З 3-5
{5}
55 км 9/9 1500 м
[Sc]
+17.4 +4.7 43 +17 +18 1014.2 971.8
16 18.06 ЮЗ 1-4
{5}
н/о н/о +16.2 +5.2 48 +17 +17 1014.8 972.3
17 18.06 ЮЗ 1-2
{4}
н/о н/о +15.5 +6.0 53 +16 +16 1015.1 972.4
18 18.06 З 2-3
{7}
55 км 9/1 1500 м
[Cu hum Ac As]
+14.2 +7.0 62 +14 +14 1015.5 972.6 +14.2 +19.4
19 18.06 З 2-3
{3}
н/о н/о +14.3 +5.4 55 +14 +14 1015.7 972.8
20 18.06 З 3-4
{4}
н/о н/о +13.2 +4.6 56 +12 +12 1016.0 973.0
21 18.06 штиль 0-1
{4}
н/о н/о +12.4 +3.4 54 +12 +12 1016.4 973.3
22 18.06 штиль 0
{1}
н/о н/о +11.3 +4.8 64 +11 +11 1016.6 973.3
23 18.06 штиль 0
{1}
н/о н/о +10.7 +5.1 68 +10 +10 1016.8 973.4
00 19.06 штиль 0
{4}
55 км 8/0
[Ac cuf]
+10.6 +5.0 68 +10 +10 1016.7 973.2
01 19.06 штиль 0 н/о н/о +10.8 +4.3 64 +10 +10 1016.6 973.2
02 19.06 штиль 0
{1}
н/о н/о +9.5 +4.9 73 +9 +9 1016.7 973.1
03 19.06 штиль 0 55 км 5/0
[Ac cuf]
+9.2 +4.8 74 +9 +9 1016.9 973.2
04 19.06 штиль 0-1
{1}
н/о н/о +9.5 +4.5 71 +9 +9 1017.0 973.3
05 19.06 штиль 0
{1}
н/о н/о +10.4 +5.6 72 +10 +10 1016.8 973.3
06 19.06 штиль 0
{1}
55 км 8/0
[Ac cuf]
+12.6 +4.8 59 +12 +15 1016.5 973.4 +9.0 +14.7
07 19.06 штиль 0-1
{1}
н/о н/о +14.5 +3.9 49 +14 +14 1015.8 973.0
08 19.06 штиль 0-1
{1}
н/о н/о +14.1 +3.9 50 +14 +14 1015.8 972.9
09 19.06 штиль 0
{3}
55 км 8/5 1500 м
[Cu hum Ac cuf Cs]
+14.6 +4.3 50 +15 +20 1015.9 973.0
10 19.06 ЮЗ 1-5
{5}
н/о н/о +15.8 +1.9 39 +17 +17 1015.2 972.5
11 19.06 З 1-4
{5}
н/о н/о +16.9 +2.5 38 +18 +18 1014.5 972.0
12 19.06 штиль 0-2
{5}
55 км 10/8 1500 м
[Cu hum Ac As Ci sp]
+16.3 +3.7 43 +16 +18 1013.8 971.3
13 19.06 З 1-2
{2}
н/о н/о +15.3 +4.4 48 +16 +16 1013.4 970.7
14 19.06 штиль 0
{2}
н/о н/о +14.6 +6.2 57 +14 +14 1013.3 970.6
15 19.06 штиль 0-1
{1}
н/о н/о +14.7 +3.8 48 +15 +15 1012.2 969.6
16 19.06 штиль 0
{2}
н/о н/о +11.9 +6.6 70 +11 +11 1012.7 969.6
17 19.06 штиль 0
{1}
н/о н/о +11.3 +8.0 80 +11 +11 1012.2 969.0
18 19.06 штиль 0
{2}
н/о н/о +11.6 +7.3 75 +11 +11 1010.9 967.9 +11.1 +17.1
19 19.06 штиль 0
{1}
н/о н/о +11.0 +6.6 74 +10 +10 1010.4 967.3
20 19.06 штиль 0-2
{2}
н/о н/о +10.7 +4.2 64 +10 +10 1010.1 967.0
21 19.06 З 1-4
{6}
н/о н/о +9.9 +3.2 63 +10 +10 1010.6 967.3
22 19.06 ЮЗ 1-3
{4}
н/о н/о +10.0 +2.6 60 +10 +10 1010.7 967.5
23 19.06 штиль 0-1
{1}
н/о н/о +7.8 +2.9 71 +7 +7 1010.9 967.2
00 20.06 штиль 0-1
{6}
>70 км 5/0
[Ac cuf]
+8.0 +2.9 70 +7 +7 1010.6 967.1
01 20.06 штиль 0
{1}
н/о н/о +8.0 +2.5 68 +7 +7 1010.3 966.7
02 20.06 штиль 0-2
{3}
н/о н/о +7.8 +2.7 70 +7 +7 1010.6 967.0
03 20.06 З 3-5
{5}
>70 км 5/1 1500 м
[Cu hum Ac cuf]
+8.8 +2.2 63 +7 +7 1010.2 966.8
04 20.06 З 4-5
{6}
н/о н/о +9.6 +1.8 58 +7 +7 1010.4 967.1
05 20.06 ЮЗ 3-5
{5}
н/о н/о +10.4 +2.3 57 +9 +9 1010.2 967.0
06 20.06 ЮЗ 4-7
{7}
>70 км 5/3 1000 м
[Cu med, cong Ac und]
+11.1 +0.5 48 +9 +11 1009.9 966.8 +7.3 +11.6
07 20.06 ЮЗ 4-5
{7}
н/о н/о +11.0 +2.8 57 +9 +9 1010.5 967.3
08 20.06 З 5-7
{7}
н/о н/о +12.3 +1.9 49 +10 +10 1010.5 967.6
09 20.06 ЮЗ 4-6
{8}
н/о н/о +12.5 +1.5 47 +11 +11 1010.4 967.5
10 20.06 ЮЗ 5-7
{8}
н/о н/о +13.0 +0.4 42 +11 +11 1010.3 967.5
11 20.06 ЮЗ 4-7
{8}
н/о н/о +13.9 +0.9 41 +13 +13 1010.3 967.6
12 20.06 З 5-8
{8}
65 км 9/0
[Ac cuf]
+13.3 0.0 40 +12 +14 1010.5 967.7
13 20.06 ЮЗ 3-6
{8}
н/о н/о +13.6 +2.5 47 +13 +13 1010.6 967.9
14 20.06 ЮЗ 6-8
{9}
н/о н/о +14.0 +1.7 43 +12 +12 1010.5 967.8
15 20.06 ЮЗ 6-9
{10}
н/о н/о +14.0 +1.3 42 +12 +12 1010.7 968.0
16 20.06 ЮЗ 5-8
{8}
н/о н/о +13.8 +1.5 43 +12 +12 1010.9 968.1
17 20.06 З 5-8
{9}
н/о н/о +13.2 +0.3 41 +12 +12 1011.3 968.4
18 20.06 З 4-7
{10}
>70 км 1/0
[Ac lent]
+12.5 +1.8 48 +11 +12 1011.9 968.9 +10.9 +14.7
19 20.06 ЮЗ 2-5
{7}
н/о н/о +11.8 +0.6 46 +11 +11 1012.6 969.5
20 20.06 штиль 0-2
{4}
н/о н/о +10.9 +0.9 50 +11 +11 1013.1 969.8
21 20.06 ЮЗ 1-3
{4}
н/о н/о +10.0 +0.9 53 +10 +10 1013.7 970.3
22 20.06 З 1-4
{4}
н/о н/о +9.7 -0.2 50 +10 +10 1013.8 970.3
23 20.06 З 2-4
{4}
н/о н/о +9.0 +0.5 55 +8 +8 1013.9 970.4
00 21.06 З 2-3
{7}
>70 км 1/0
[]
+9.2 +0.4 54 +8 +8 1014.0 970.5
01 21.06 З 1-4
{5}
н/о н/о +8.8 +0.3 55 +9 +9 1014.5 970.8
02 21.06 штиль 0-1
{3}
н/о н/о +8.2 +0.7 59 +8 +8 1014.6 970.9
03 21.06 штиль 0-1
{2}
>70 км 1/0
[]
+7.2 +1.1 65 +7 +7 1015.0 971.1
04 21.06 штиль 0 н/о н/о +7.7 +1.6 65 +7 +7 1014.8 971.0
05 21.06 штиль 0
{1}
н/о н/о +10.2 +1.8 56 +10 +10 1014.5 971.1
06 21.06 ЮЗ 3-4
{5}
>70 км 5/5 1500 м
[Cu hum As trans Ci sp]
+11.2 +1.7 52 +10 +11 1014.4 971.2 +6.8 +12.4
07 21.06 ЮЗ 2-4
{4}
н/о н/о +11.6 +1.0 48 +11 +11 1014.6 971.4
08 21.06 З 3-4
{5}
н/о н/о +11.7 +1.9 51 +10 +10 1014.6 971.4
09 21.06 ЮЗ 3-4
{5}
н/о н/о +12.3 +2.2 50 +11 +11 1014.1 971.1
10 21.06 З 3-4
{5}
н/о н/о +13.5 +2.7 48 +13 +13 1014.1 971.2
11 21.06 ЮЗ 2-4
{5}
н/о н/о +13.8 -0.6 37 +14 +14 1013.8 970.9
12 21.06 З 1
{5}
>70 км 10/0 2000 м
[As op]
+15.4 +1.6 39 +16 +19 1013.2 970.6
13 21.06 ЮЗ 2-3
{4}
н/о н/о +14.5 +4.2 50 +14 +14 1012.7 970.0
14 21.06 ЮЗ 3-5
{5}
н/о н/о +15.1 +1.3 39 +15 +15 1012.0 969.4
15 21.06 ЮЗ 1-4
{5}
н/о н/о +15.9 +2.0 39 +17 +17 1011.7 969.2
16 21.06 З 2-4
{5}
н/о н/о +16.2 +1.9 38 +16 +16 1011.0 968.6
17 21.06 ЮЗ 2-3
{4}
н/о н/о +16.8 +1.3 35 +17 +17 1010.7 968.4
18 21.06 З 3-4
{5}
н/о н/о +15.0 +0.8 38 +15 +15 1011.0 968.4 +11.1 +17.0
19 21.06 З 3-3
{4}
н/о н/о +13.8 +3.0 48 +13 +13 1011.3 968.5
20 21.06 штиль 0-1
{3}
н/о н/о +13.1 +1.8 46 +13 +13 1011.4 968.5
21 21.06 штиль 0
{1}
н/о н/о +11.8 +2.6 53 +12 +12 1011.7 968.7
22 21.06 штиль 0
{1}
н/о н/о +10.9 +3.0 58 +11 +11 1011.9 968.7
23 21.06 штиль 0-1
{1}
н/о н/о +10.4 +3.5 62 +10 +10 1011.9 968.6
00 22.06 штиль 0
{4}
55 км 5/3 1500 м
[Cu med, cong Ac und]
+10.0 +3.1 62 +10 +10 1011.7 968.3
01 22.06 штиль 0-1
{1}
н/о н/о +9.8 +4.0 67 +9 +9 1011.3 968.0
02 22.06 штиль 0 н/о н/о +9.7 +4.3 69 +9 +9 1011.0 967.7
03 22.06 штиль 0 30 км 10/0
[As trans]
+9.5 +4.1 69 +9 +9 1010.8 967.4
04 22.06 штиль 0 н/о н/о +9.6 +4.8 72 +9 +9 1010.7 967.4
05 22.06 штиль 0 н/о н/о +9.8 +4.8 71 +9 +9 1010.3 967.0
06 22.06 штиль 0
{1}
55 км 10/0
[As trans]
+10.6 +5.8 72 +10 +12 1010.0 966.8 +9.4 +15.0
07 22.06 В 2-3
{3}
н/о н/о +11.8 +4.5 61 +11 +11 1009.2 966.2
08 22.06 В 2-3
{4}
н/о н/о +12.4 +3.9 56 +12 +12 1008.6 965.7
09 22.06 В 2-3
{3}
н/о н/о +13.4 +4.6 55 +13 +13 1008.0 965.4
10 22.06 В 2-3
{4}
н/о н/о +13.1 +4.0 54 +13 +13 1007.7 965.0
11 22.06 В 2-3
{3}
н/о н/о +14.3 +3.8 49 +14 +14 1006.9 964.4
12 22.06 В 1-3
{4}
55 км 10/0
[As trans]
+14.8 +5.3 53 +15 +22 1006.5 964.1
13 22.06 В 2-3
{3}
н/о н/о +14.7 +6.3 57 +15 +15 1006.3 963.9
14 22.06 ЮВ 1-2
{3}
н/о н/о +14.2 +7.0 62 +15 +15 1006.5 964.0
15 22.06 В 1-2
{3}
30 км слабый дождь 10/10 1500 м
[Frnb]
+13.6 +8.2 70 +14 +14 1006.4 963.8
16 22.06 штиль 0-1
{2}
н/о н/о +14.5 +8.0 65 +14 +14 1005.9 963.5
17 22.06 штиль 0-1
{2}
н/о н/о +14.7 +8.0 64 +15 +15 1005.6 963.2
18 22.06 штиль 0-1
{3}
30 км {дождь} 10/10 1500 м
[Frnb]
+14.7 +8.4 66 +15 +15 1005.4 963.0 +10.6 +15.1
19 22.06 штиль 0-1
{1}
н/о н/о +14.5 +8.0 65 +14 +14 1005.2 962.8
20 22.06 штиль 0-1
{2}
н/о н/о +14.1 +7.9 66 +14 +14 1004.9 962.5
21 22.06 штиль 0-1
{1}
н/о н/о +12.6 +8.3 75 +12 +12 1005.3 962.6
22 22.06 штиль 0 н/о н/о +11.4 +8.3 81 +11 +11 1005.7 962.8
23 22.06 штиль 0 н/о н/о +11.5 +8.4 81 +11 +11 1005.8 962.9
00 23.06 штиль 0
{2}
>70 км 4/0
[Ac inh]
+10.6 +7.5 81 +10 +10 1005.7 962.7
01 23.06 штиль 0-2
{2}
н/о н/о +9.6 +7.2 85 +9 +9 1005.7 962.6
02 23.06 штиль 0-1
{2}
н/о н/о +9.2 +6.5 83 +8 +8 1006.1 962.9
03 23.06 штиль 0-1
{2}
н/о н/о +8.8 +6.6 86 +8 +8 1006.4 963.1
04 23.06 штиль 0
{1}
н/о н/о +9.1 +6.7 85 +8 +8 1005.8 962.6
05 23.06 СВ 1-2
{3}
н/о н/о +9.9 +6.8 81 +9 +9 1005.4 962.3
06 23.06 ЮЗ 1-1
{3}
н/о н/о +11.5 +7.2 75 +11 +11 1004.9 962.1 +8.3 +14.7
07 23.06 С 1-2
{2}
н/о н/о +12.9 +7.8 71 +13 +13 1004.1 961.6
08 23.06 штиль 0-2
{3}
н/о н/о +13.2 +8.5 73 +13 +13 1003.6 961.1
09 23.06 штиль 0-1
{2}
55 км 10/10 1500 м
[Frnb]
+12.7 +9.0 78 +12 +12 1003.3 960.7
10 23.06 СВ 1-3
{3}
н/о н/о +14.7 +9.7 72 +15 +15 1002.4 960.2
11 23.06 З 1-2
{4}
н/о н/о +13.2 +10.4 83 +13 +13 1002.2 959.7
12 23.06 СВ 1-2
{4}
н/о н/о +13.6 +11.5 87 +14 +14 1002.3 959.9
13 23.06 В 3-4
{4}
н/о н/о +13.6 +11.3 86 +12 +12 1002.1 959.7
14 23.06 В 1-3
{4}
н/о н/о +13.5 +11.4 87 +14 +14 1001.9 959.5
15 23.06 СВ 1-2
{3}
20 км дождь 10/8 1000 м
[Frnb As op]
+13.0 +10.9 87 +13 +13 1001.4 959.0
16 23.06 СВ 1-2
{2}
н/о н/о +14.3 +11.1 81 +15 +15 1000.6 958.4
17 23.06 СВ 1-2
{3}
н/о н/о +13.7 +10.5 81 +14 +14 1000.2 957.9
18 23.06 С 1-2
{4}
55 км {дождь} 6/6 1000 м
[Sc]
+13.5 +10.7 83 +14 +15 999.9 957.6 +11.2 +14.9
19 23.06 СВ 1-3
{3}
н/о н/о +12.9 +11.0 88 +13 +13 999.8 957.4

 

Местоположение метеостанции Fagernes (Норвегия): широта 60.99 долгота 9.24 высота над уровнем моря 365 м.

В архиве по умолчанию представлена погода в Fagernes за последнюю неделю. Архивные данные за месяц целиком и за предыдущие месяцы, начиная с января 2011 года, Вы можете получить, выбрав интересующий диапазон дат из раскрывающегося списка и нажав кнопку "Ввод!".

Внимание! Время в таблицах - всемирное. Для получения местного времени необходимо прибавить поправку, которая в Fagernes равна 1 ч.

Смотрите также архив погоды в соседних городах и на ближайших метеорологических станциях:

Погода в Fagernes Lufthavn (Норвегия) (4 км)
Погода в Loken i Volbu (Норвегия) (17 км)
Погода в Beitostolen II (Норвегия) (34 км)
Погода в Hemsedal II (Норвегия) (38 км)
Погода в Hemsedal-Hollekolten (Норвегия) (41 км)
Погода в Vest-Torpa II (Норвегия) (43 км)
Погода в Nesbyen-Todokk (Норвегия) (47 км)
Погода в Skabu (Норвегия) (61 км)
Погода в Filefjell-Kyrkjestolane (Норвегия) (64 км)
Погода в Lillehammer (Норвегия) (68 км)

Пояснения к столбцам:

Ветер - указаны скорость ветра в м/с - средняя за 10 мин, порывы в срок и между сроками (в фигурных скобках) и направление, откуда дует ветер: С - северный, СВ - северо-восточный, В - восточный, ЮВ - юго-восточный, Ю - южный, ЮЗ - юго-западный, З - западный, СЗ - северо-западный.
Видимость - горизонтальная дальность видимости в метрах или километрах. При видимости от 1 до 10 км при отсутствии осадков обычно наблюдается дымка, при ухудшении видимости до 1 км и менее - туман. В сухую погоду видимость может ухудшаться дымом, пылью или мглою.
Явления - указаны атмосферные явления, наблюдавшиеся в срок или в последний час перед сроком; фигурными скобками обозначены явления, наблюдавшиеся между сроками (за 1-3 часа до срока); квадратными скобками обозначены град или гололедные отложения с указанием их диаметра в мм.
Облачность - указаны через наклонную черту общая и нижняя облачность в баллах и высота нижней границы облаков в метрах; квадратными скобками обозначены формы облаков: Ci - перистые, Cs - перисто-слоистые, Cc - перисто-кучевые, Ac - высококучевые, As - высокослоистые, Sc - слоисто-кучевые, Ns - слоисто-дождевые, Cu - кучевые, Cb - кучево-дождевые. Подробнее классификацию облаков см. в Атласе облаков (PDF).
T - Температура воздуха - температура, измеренная на высоте 2 м над землей.
Td - Температура точки росы - температура, при понижении до которой содержащийся в воздухе водяной пар достигнет насыщения.
f - Относительная влажность воздуха - влажноcть воздуха, измеренная на высоте 2 м над землей.
Te - Эффективная температура - температура, которую ощущает одетый по сезону человек в тени. Характеристика душности погоды. При расчете учитывается влияние влажности воздуха и скорости ветра на теплоощущения человека.
Tes - Эффективная температура на солнце - температура, которую ощущает человек, с поправкой на солнечный нагрев. Характеристика знойности погоды. Зависит от высоты солнца над горизонтом, облачности и скорости ветра. Ночью, в пасмурную погоду, а также при ветре 12 м/с и более поправка равна нулю.
P - Атмосферное давление - приведенное к уровню моря атмосферное давление.
Po - Атмосферное давление - измеренное на уровне метеостанции атмосферное давление.
Tmin - Минимальная температура - минимум температуры воздуха на высоте 2 м над землей.
Tmax - Максимальная температура - максимум температуры воздуха на высоте 2 м над землей.
R - Количество осадков - Количество выпавших осадков за период времени, мм. При наведении курсора мыши на число - период времени, за который выпало указанное количество осадков.
R24 - Количество осадков - Количество выпавших осадков за 24 часа, мм.
S - Снежный покров - Высота снежного покрова, см. При наведении курсора мыши на число - состояние снежного покрова и степень покрытия местности в баллах.